Showing default

PEARL WHITE 1, 44497

Orbit data source: Space-Track

PEARL WHITE 1, 44497 is a payload satellite owned by USAF AFSPC (US) in LEO that was launched on Mon, 19 Aug 2019 UTC via an ELECTRON launch vehicle from the Rocket Lab Launch Complex (RLLC). Payloads include a variety of satellites, spacecraft, and rockets equipped with specific instruments for various scientific and technological missions. These include communications satellites like Starlink; space stations such as the ISS; scientific satellites like the Hubble; Earth observation satellites from companies like Planet Labs, Umbra, and HawkEye 360; GPS; miniature CubeSats for education and research; and military/defense satellites.

Loading next visibility...
PEARL WHITE 1 details
Identifier
44497, 2019-054C
Orbit
LEO
Last TLE update6 hours ago
Origin
Flag of USUSAF AFSPC (US)
ManufacturerTiger Innov.
MissionOperational Defense Technology
Bus & MotorCUBESAT 6U, Unknown motor
Mass10 kg wet, ~10 kg dry
Launch date (UTC)
2019-08-19 (5 years ago)
Launch vehicle
ELECTRON
Launch site
Rocket Lab Launch Complex (RLLC)
Object type
Payload
Rocket body
Debris
Shape & HBRBox, 0.3 m
Radar Cross Section0.105 m², Medium (>0.1 m² and < 1m²)

Expand to show TLE details & history

TLE from 6 hours ago
0 PEARL WHITE 1
1 44497U 19054C   24361.42931208  .00041991  00000-0  73379-3 0  9998
2 44497  45.0114  56.2244 0008767 338.9798  21.0732 15.49992989296684
Epoch: 2024-12-26T10:18Z
Definitive object data (Epoch: 2024-12-26T10:18:12.563Z)
Latitude-0.00006°
Longitude166.26316°
Altitude411.189 km
Speed7.669 km/s
True Right ascension03h 44m 53s
True Declination0° 00' 00"
Sunlit
Object was in full shadow at TLE epoch
Visualization TLE readout
Latitude-45.12538°
Longitude71.66086°
Altitude429.275 km
Speed7.655 km/s
Apparent Right ascension00h 29m 12s
Apparent Declination-52° 20' 32"
Sunlit
Object is in daylight
Visualization observer readout
Local Sidereal Time15:27:45
Azimuth127.405° SE
Elevation-57.291°
Doppler factor1
Orbital elements
Apogee altitude424.328 km
Perigee altitude412.411 km
Semi-major axis6,796.506 km
Eccentricity0.0008767
Inclination45.0114°
RAAN56.2244°
Arg. of periapsis338.9798°
True anomaly21.10936°
Mean anomaly21.0732°
Eccentric anomaly21.09128°
Mean motion3.8736 °/min
BSTAR0.00073379
Orbital period92.94 mins
Loading maneuver chart data...
Loading historical data...
Loading historical data...
Loading historical data...
Loading historical data...
Loading historical data...
Loading historical data...
Loading historical data...

PEARL WHITE 1 Visibility forecast

Observer location: undefined°, undefined

Span
Click to sort rows by Start time (UTC) header in descending order
Start Az.
Max El. time (UTC)
Max El. Az.
Max El.
End time (UTC)
End Az.
5 mins2024-12-27 06:35:38.513Z203.386° SW2024-12-27 06:38:38.513Z136.464° SSE23.939°2024-12-27 06:40:38.513Z91.809° ESE
5 mins2024-12-27 08:13:38.513Z266.739° W2024-12-27 08:15:38.513Z353.311° N40.675°2024-12-27 08:18:38.513Z61.786° ENE
4 mins2024-12-27 09:51:38.513Z311.172° NW2024-12-27 09:53:38.513Z17.81° NNE27.22°2024-12-27 09:55:38.513Z60.312° ENE
5 mins2024-12-27 11:28:38.513Z304.107° NW2024-12-27 11:30:38.513Z0.392° NNE38.511°2024-12-27 11:33:38.513Z94.29° ESE
4 mins2024-12-27 13:06:38.513Z257.955° W2024-12-27 13:07:38.513Z229.418° WSW26.905°2024-12-27 13:10:38.513Z152.869° SSE
|